Regional Weather Roundup
Issued by NWS

Home | Current Version | Previous Version | Text Only | Print | Product List | Glossary Off
Versions: 1 2 3 4 5 6 7 8 9 10 11 12 13 14 15 16 17 18 19 20 21 22 23 24 25 26 27 28 29 30 31 32 33 34 35 36 37 38 39 40 41 42 43 44 45 46 47 48 49 50

353
ASUS43 KFSD 132202
RWRSD

WEATHER ROUNDUP FOR SOUTH DAKOTA
NATIONAL WEATHER SERVICE SIOUX FALLS SD
400 PM CST WED DEC 13 2017

NOTE: "FAIR" INDICATES FEW OR NO CLOUDS BELOW 12,000 FEET WITH NO
SIGNIFICANT WEATHER AND/OR OBSTRUCTIONS TO VISIBILITY.


SDZ001>005-009-010-012>017-132300-
NORTHWEST AND NORTH CENTRAL SOUTH DAKOTA

CITY           SKY/WX    TMP DP  RH WIND       PRES   REMARKS
BUFFALO          N/A     40  23  50 NW24      29.97S
FAITH            N/A     41  23  48 NW29G39   29.96R
MOBRIDGE       CLOUDY    38  27  64 NW22G30   29.93R
$$

SDZ012>016-024>037-041>051-057-063-072>074-132300-
SOUTHWEST AND SOUTH CENTRAL SOUTH DAKOTA

CITY           SKY/WX    TMP DP  RH WIND       PRES   REMARKS
RAPID CTY ARPT CLOUDY    43  24  47 N21G30    30.03R
PIERRE         PTCLDY    43  27  53 N25G32    29.94R
CUSTER         CLOUDY    36  14  40 N6        29.99R
ELLSWORTH AFB  MOCLDY    43  24  46 N20G31    30.02R
PHILIP         MOCLDY    46  24  42 NW25G31   29.99R
PINE RIDGE     PTCLDY    46  24  42 N16G24    30.01R
SPEARFISH      FAIR      39  25  56 NW21G26   30.06R
WINNER         FAIR      48  25  40 NW22G32   29.93R
$$

SDZ004>011-016>023-039-040-132300-
NORTHEAST SOUTH DAKOTA

CITY           SKY/WX    TMP DP  RH WIND       PRES   REMARKS
ABERDEEN       CLOUDY    36  27  69 NW21G31   29.90R
WATERTOWN      CLOUDY    31  29  92 N16       29.83R WCI  20
BROOKINGS      CLOUDY    32  28  85 N15       29.83R WCI  22
SISSETON         N/A     33  29  85 NW18      29.83R WCI  22
$$

SDZ017-020-022-023-036>040-048>070-132300-
SOUTHEAST SOUTH DAKOTA

CITY           SKY/WX    TMP DP  RH WIND       PRES   REMARKS
SIOUX FALLS    CLOUDY    37  30  75 NW21G26   29.83R
HURON          CLOUDY    37  27  67 NW23G30   29.90R
CHAMBERLAIN    PTCLDY    45  30  55 N14G26    29.93R
MITCHELL       CLOUDY    39  28  64 N26G32    29.91R
YANKTON        CLOUDY    40  27  59 NW25G36   29.88R
$$

ABBREVIATIONS USED IN REMARKS
   TC - TEMPERATURE IN CELSIUS
  WCI - WIND CHILL INDEX
   HX - HEAT INDEX
  VSB - VISIBILITY





USA.gov is the U.S. government's official web portal to all federal, state and local government web resources and services.